SCP
-0 -0 -0 -1 -1 -1 -1 -0 -0 -0 -0 -0 -0 -0 -0 -0 -0 -0 -0 -0 -0 0 0 0 0 0 0 -0 -0 0 -0 -0 -0 -0 -0 0 0 0 0 0 0 0 0
-1 -0 -0 -1 -1 -1 -1 -0 -0 -0 -0 -0 -0 -0 -0 -0 -0 -0 -0 -0 -0 0 0 0 0 -0 -0 -0 -0 -0 -0 -0 0 -0 -0 0 0 0 0 0 0 0 0
-0 -0 -0 -0 -1 -1 -1 -0 -0 -0 -0 -0 -0 -0 -0 -0 -0 -0 -0 -0 0 0 0 0 -0 -0 -0 -0 -0 -0 -0 -0 -0 -0 0 0 0 0 0 0 0 0 0
-0 -0 -0 -0 -1 -1 -1 -0 -0 -0 -0 -0 -0 -0 -0 -0 -0 -0 0 0 0 0 0 -0 -0 -0 0 -0 -0 -0 -0 -0 -0 -0 -0 0 0 0 0 0 0 0 0
0 -0 -0 -0 -0 -1 -1 -0 -0 -0 -0 -0 0 0 0 -0 -0 0 0 0 -0 -0 -0 0 0 -0 -0 -0 -0 -0 -0 -0 -0 -0 -0 0 0 0 0 0 0 0 0
0 0 0 0 -0 -0 -0 -0 -0 -0 -0 -0 -0 -0 0 -0 -0 -0 -0 -0 -0 -0 -0 0 -0 -0 -0 -0 -0 -0 -0 -0 -0 -0 -0 -0 0 0 0 0 0 0 0
1 1 0 0 0 0 0 0 -0 -0 -0 -0 -0 0 0 -0 -0 -0 -0 -0 -0 -0 -0 -0 -0 -0 -0 -0 -0 -0 -0 -0 -0 -0 -0 0 0 0 0 0 0 0 0
0 1 1 0 0 0 0 0 0 0 0 0 0 0 0 0 -0 -0 -0 -0 -0 -0 -0 -0 -0 -0 -0 -0 -0 -0 -0 -0 -0 -0 -0 -0 0 0 0 0 0 0 0
0 0 1 1 0 0 0 0 0 0 0 0 0 0 0 0 0 0 0 0 0 -0 -0 -0 -0 -0 -0 -0 -0 -0 -0 -0 -0 -0 -0 -0 0 0 0 0 0 0 0
0 0 1 1 1 1 1 1 0 0 0 0 0 0 0 0 0 0 0 0 0 0 0 -0 -0 -0 -0 -0 -0 -0 -0 -0 -0 -0 -0 -0 0 0 0 0 0 0 0
0 0 0 1 1 1 1 1 1 1 1 0 0 0 0 0 0 0 0 0 0 0 0 0 0 0 0 0 -0 -0 -0 -0 -0 -0 -0 -0 0 0 -0 0 0 0 0
0 0 0 1 1 1 2 1 1 1 1 1 1 1 1 0 0 0 0 0 0 0 0 0 0 0 0 0 -0 -0 0 0 0 -0 -0 -0 0 0 0 0 0 0 0
1 1 0 0 1 1 1 2 1 1 1 1 1 1 1 1 1 1 0 0 0 0 0 0 0 0 0 0 0 -0 0 0 0 0 -0 0 0 0 0 0 0 0 0
2 1 1 1 1 0 1 2 1 1 1 1 1 1 1 1 0 0 0 0 0 0 0 0 0 0 0 0 0 0 0 0 0 0 0 0 0 0 0 0 0 0 0
0 0 1 1 1 0 1 1 1 1 2 1 1 1 1 1 0 0 0 0 0 0 0 0 0 0 0 0 0 0 0 0 0 0 0 0 0 0 0 1 1 1 0
-0 -0 0 1 1 0 0 1 1 1 1 1 2 2 2 1 1 1 0 0 0 0 0 0 0 0 0 0 0 0 0 0 0 0 0 0 0 1 0 1 1 1 1
0 -0 -0 1 1 0 0 1 1 1 1 1 1 2 2 2 2 1 1 0 0 0 0 0 0 0 0 0 0 0 0 0 0 0 1 0 1 1 1 1 1 1 1
0 0 0 0 1 1 2 2 3 2 1 1 1 1 1 2 2 1 1 1 1 0 0 0 0 0 0 0 0 0 0 0 1 1 1 1 1 1 1 1 1 2 1
0 0 0 0 0 0 0 0 1 2 2 2 1 1 1 2 2 2 2 1 1 1 1 0 0 0 0 0 0 0 0 0 1 1 1 1 2 1 1 1 1 1 1
0 0 0 0 0 0 0 0 0 2 2 2 2 1 1 1 1 2 2 2 1 1 1 1 0 0 0 0 0 0 0 1 1 1 1 2 1 1 1 1 2 2 1
0 0 0 0 0 0 0 0 0 0 2 3 3 2 2 1 1 2 2 2 2 2 2 2 2 1 1 0 1 1 0 0 1 2 1 1 1 1 1 1 2 2 2
0 0 0 0 0 0 0 0 0 0 0 0 1 2 3 2 2 2 2 2 3 2 2 1 2 2 1 1 1 1 1 1 0 1 1 1 1 2 2 2 2 1 1
0 0 0 0 0 0 0 0 0 0 0 0 0 0 1 2 2 2 2 2 2 3 2 2 2 1 1 1 1 1 1 1 0 0 1 2 2 2 2 2 2 2 1
0 0 0 0 0 0 0 0 0 0 0 0 0 0 0 0 0 2 2 2 2 2 2 2 2 2 1 1 0 1 1 0 0 0 2 2 2 2 2 2 2 2 2
0 0 0 0 0 0 0 0 0 0 0 0 0 0 0 0 0 0 0 2 2 2 2 2 2 2 2 2 2 1 1 1 3 2 1 2 2 2 2 2 2 2 1
0 0 0 0 0 0 0 0 0 0 0 0 0 0 0 0 0 0 0 0 0 2 2 2 2 2 2 2 2 1 1 1 1 4 3 2 1 2 3 2 2 1 1
Wind_Speed_500mb
56 54 52 47 43 42 45 46 44 43 40 38 35 32 29 29 32 35 37 37 34 29 26 24 20 18 17 16 17 18 19 22 25 30 30 28 31 29 25 19 18 17 16
55 54 54 49 44 44 46 46 44 42 39 36 35 32 33 38 40 41 40 37 33 29 25 22 20 20 21 23 22 20 19 20 21 20 24 26 29 27 25 22 17 14 14
53 54 56 52 47 47 47 45 43 40 35 35 35 34 37 39 41 40 38 35 31 27 24 22 22 23 24 23 21 21 26 25 21 16 16 21 22 21 23 20 16 12 12
48 52 56 54 49 49 47 44 41 37 34 34 35 36 38 39 40 39 36 34 30 26 23 22 22 22 21 20 19 21 22 22 19 14 13 18 20 14 21 19 16 14 12
50 50 55 54 50 49 46 43 40 36 32 32 34 34 35 36 36 34 32 29 25 23 21 20 19 19 19 19 20 20 21 19 16 11 8 13 18 12 21 15 13 13 12
46 48 53 53 50 47 45 43 40 37 33 31 33 34 34 34 34 31 29 26 23 22 20 19 18 17 17 18 19 20 22 19 15 6 4 7 16 16 20 16 12 11 9
44 46 52 52 49 46 44 41 39 36 34 30 30 32 33 33 33 32 29 26 23 22 21 20 19 18 17 17 17 18 20 21 13 10 3 6 11 16 19 17 13 12 11
35 44 48 50 49 46 44 42 39 37 34 32 29 28 30 31 30 29 27 25 23 21 20 20 20 19 17 16 15 16 17 20 15 12 7 2 8 11 20 19 13 12 11
25 31 42 48 50 48 45 44 42 40 37 35 32 28 27 28 28 28 27 26 24 23 22 21 20 19 17 15 14 14 14 15 21 16 14 5 1 5 18 20 14 12 12
23 20 27 39 47 50 48 46 44 43 42 40 38 35 32 30 29 28 29 28 26 24 24 23 22 21 19 17 15 14 14 15 18 21 17 9 6 6 16 22 17 13 13
34 24 25 23 39 47 49 49 48 46 46 47 47 45 42 38 36 35 32 30 29 30 29 27 26 24 22 21 19 16 15 18 19 21 18 10 7 6 16 21 17 13 13
46 40 31 27 29 45 50 51 51 51 51 52 54 54 52 47 43 40 38 37 36 34 33 33 32 30 29 26 25 24 19 20 22 26 20 17 12 6 15 22 19 15 13
46 46 36 31 34 38 47 51 55 56 55 55 56 59 57 55 53 51 48 47 46 45 44 42 39 38 35 33 34 33 29 27 28 28 24 21 19 15 19 25 23 21 18
46 44 46 46 49 41 42 44 47 53 55 56 57 60 62 63 63 62 60 56 54 53 51 50 49 45 43 42 42 41 42 39 36 37 35 33 28 23 22 24 29 27 24
17 27 46 53 56 51 48 44 46 50 50 50 52 54 59 64 66 64 64 63 61 60 61 60 57 54 54 52 51 50 48 47 45 43 40 36 36 31 25 26 26 30 30
6 12 31 49 62 61 55 47 41 40 38 37 38 39 58 63 67 70 71 71 71 67 66 67 68 65 63 60 56 57 53 47 51 49 45 41 38 35 34 31 29 30 34
27 18 13 37 60 59 51 46 45 43 37 36 41 42 41 47 63 69 71 77 79 73 72 70 70 71 70 68 62 57 53 52 51 50 46 49 49 46 46 37 34 34 37
18 14 19 20 39 52 51 50 47 45 49 53 50 48 49 49 49 54 61 73 79 77 75 71 69 69 71 73 69 66 62 52 46 50 57 60 56 49 50 44 42 38 41
19 13 16 23 22 29 43 51 47 43 44 41 41 48 55 56 60 62 62 64 65 75 82 78 76 73 71 69 71 74 68 61 58 54 53 57 59 54 47 43 44 41 45
32 28 20 19 21 25 30 34 42 49 57 52 53 56 59 67 67 69 73 73 73 73 80 89 84 80 81 76 76 75 76 66 64 64 61 56 57 55 49 40 48 46 48
37 39 31 24 16 15 17 23 29 35 31 38 51 51 56 64 67 78 84 83 83 82 85 88 93 90 88 83 80 81 82 78 72 75 70 69 69 66 57 60 52 51 54
44 44 45 45 34 28 27 32 41 48 54 50 44 46 51 58 66 75 83 89 95 94 93 92 95 100 101 94 90 87 72 88 87 81 82 80 77 72 67 64 60 58 58
49 43 38 30 28 23 21 23 27 36 45 54 60 60 57 52 52 64 76 87 95 99 101 96 103 101 108 109 102 85 44 63 67 80 93 89 86 85 83 72 62 61 63
39 28 21 16 15 18 23 25 27 32 40 45 50 60 64 64 63 58 58 71 89 91 100 106 104 109 109 103 92 110 104 81 52 60 74 99 93 93 89 81 70 67 66
34 26 18 13 11 13 24 34 39 36 39 47 56 64 64 64 73 75 76 76 75 82 99 102 109 111 112 113 108 104 107 115 101 75 49 62 91 105 92 84 80 74 68
27 20 17 17 19 24 32 38 50 54 58 59 57 55 57 64 68 68 70 70 71 74 83 95 106 111 113 117 118 117 105 88 92 99 89 85 82 101 94 81 82 81 71
Wind_Direction_500mb
166 157 155 156 155 148 147 146 147 150 151 151 152 152 157 158 154 148 146 142 141 138 135 134 134 133 132 122 112 112 108 105 103 92 79 72 57 43 41 45 61 67 71
165 161 157 158 157 150 149 147 147 149 151 154 155 153 151 149 147 145 144 143 142 138 132 131 130 131 129 126 126 120 118 120 110 96 80 71 50 39 35 35 41 58 68
165 163 160 161 160 155 153 151 150 150 151 151 149 145 144 144 144 144 145 145 143 140 138 137 137 138 136 134 132 124 122 114 106 98 83 62 41 33 30 32 33 35 56
166 165 164 163 163 159 157 154 153 152 150 148 147 146 145 146 146 147 148 147 145 144 143 142 144 146 144 141 139 139 136 117 96 83 67 55 11 13 16 20 18 33 45
166 168 168 166 166 164 160 159 157 156 153 149 151 151 150 150 152 152 152 151 149 148 146 148 152 153 153 149 147 151 148 132 122 107 72 63 22 13 9 8 13 18 24
167 171 171 170 169 169 167 165 164 164 161 158 157 158 160 160 161 160 159 158 157 156 156 160 164 164 164 161 158 158 162 158 146 164 160 82 39 9 358 353 353 7 10
171 174 175 174 175 174 173 172 171 171 171 167 166 167 170 171 172 172 170 171 170 170 169 173 176 177 177 174 169 168 171 175 177 207 226 54 44 353 340 344 342 348 345
172 176 178 179 181 182 181 180 180 180 181 181 178 179 181 183 183 183 182 182 183 183 183 186 189 190 190 187 183 180 183 195 198 209 244 24 62 13 340 334 325 334 328
147 173 183 186 187 189 190 189 188 190 191 191 193 191 193 195 195 193 193 194 195 196 196 198 202 205 204 203 199 193 193 197 197 212 242 241 240 345 326 328 314 318 318
165 168 182 194 195 195 196 197 198 197 198 199 200 203 202 203 207 211 206 204 205 208 211 211 211 214 218 218 215 209 205 210 214 211 218 223 267 306 316 316 304 304 306
178 193 185 190 204 203 203 203 204 206 207 206 206 206 210 212 211 210 218 220 218 216 218 220 221 223 225 226 224 218 212 211 211 210 216 227 253 296 308 304 291 287 287
195 197 207 202 202 205 208 208 210 210 211 212 213 212 213 216 219 221 219 219 222 227 229 226 225 225 226 226 225 219 215 210 209 211 221 231 231 254 291 302 289 285 279
216 205 207 224 210 205 213 213 212 214 216 217 218 219 219 220 223 225 225 222 222 221 225 227 228 230 228 226 225 224 219 209 201 206 210 222 240 253 270 289 279 280 273
225 232 230 239 220 209 210 215 221 222 221 223 223 223 224 225 226 229 230 230 229 228 228 228 229 231 230 228 227 229 224 222 213 206 212 220 226 243 254 277 279 274 272
190 220 237 246 233 217 215 214 218 222 226 231 234 238 239 236 236 237 238 238 237 235 234 233 233 232 233 231 232 233 228 229 225 217 222 221 225 223 242 262 271 269 266
231 222 214 227 231 215 218 218 221 219 226 228 236 249 245 246 246 245 248 247 245 241 241 241 240 239 238 238 236 235 234 238 230 226 233 237 238 237 241 250 257 265 261
271 288 174 208 225 217 224 230 230 232 234 245 254 251 256 254 254 252 252 253 251 248 247 247 249 249 248 244 242 239 240 242 238 235 241 246 244 248 249 245 255 260 256
236 166 145 181 215 230 230 234 238 249 247 247 248 256 258 259 259 260 257 255 256 256 255 256 256 257 254 250 247 244 242 238 239 238 239 244 249 250 253 250 248 253 253
224 224 180 176 186 211 228 234 237 246 257 266 270 267 263 258 259 260 260 261 262 257 254 252 251 249 251 249 248 246 245 245 242 240 237 241 241 243 245 251 250 250 255
211 199 198 179 178 190 210 231 239 248 251 256 261 263 273 272 270 260 258 259 262 260 256 252 250 249 249 250 247 248 245 245 244 243 238 238 235 239 242 242 249 252 255
201 210 208 208 197 199 219 242 258 272 273 264 265 268 268 272 270 271 269 265 259 256 260 257 251 251 251 250 252 250 252 249 249 244 242 239 240 242 240 248 243 247 255
192 197 211 221 226 241 256 265 275 280 281 278 273 275 277 276 269 267 269 272 271 266 258 257 254 248 250 251 249 248 246 250 249 246 240 240 243 245 246 250 250 255 258
188 192 200 209 227 256 273 278 283 283 282 283 281 278 274 277 284 274 269 271 271 272 270 263 256 252 248 249 245 238 240 245 253 256 246 241 241 244 246 245 246 250 252
181 183 195 214 237 253 275 283 287 293 299 301 297 292 285 279 278 280 286 278 272 271 271 271 266 257 254 249 245 244 241 246 252 253 254 245 242 240 241 244 246 248 247
174 177 197 216 218 259 283 292 299 301 297 296 297 300 297 290 285 286 281 277 283 281 272 272 270 265 262 258 246 243 243 243 242 247 261 262 252 242 240 244 244 249 243
177 203 222 222 244 268 283 292 297 293 295 299 298 297 301 302 301 297 297 294 287 283 281 278 273 271 267 264 263 251 237 239 239 236 242 246 268 254 240 237 236 240 240
Wind_Speed_850mb
56 54 52 47 43 42 45 46 44 43 40 38 35 32 29 29 32 35 37 37 34 29 26 24 20 18 17 16 17 18 19 22 25 30 30 28 31 29 25 19 18 17 16
55 54 54 49 44 44 46 46 44 42 39 36 35 32 33 38 40 41 40 37 33 29 25 22 20 20 21 23 22 20 19 20 21 20 24 26 29 27 25 22 17 14 14
53 54 56 52 47 47 47 45 43 40 35 35 35 34 37 39 41 40 38 35 31 27 24 22 22 23 24 23 21 21 26 25 21 16 16 21 22 21 23 20 16 12 12
48 52 56 54 49 49 47 44 41 37 34 34 35 36 38 39 40 39 36 34 30 26 23 22 22 22 21 20 19 21 22 22 19 14 13 18 20 14 21 19 16 14 12
50 50 55 54 50 49 46 43 40 36 32 32 34 34 35 36 36 34 32 29 25 23 21 20 19 19 19 19 20 20 21 19 16 11 8 13 18 12 21 15 13 13 12
46 48 53 53 50 47 45 43 40 37 33 31 33 34 34 34 34 31 29 26 23 22 20 19 18 17 17 18 19 20 22 19 15 6 4 7 16 16 20 16 12 11 9
44 46 52 52 49 46 44 41 39 36 34 30 30 32 33 33 33 32 29 26 23 22 21 20 19 18 17 17 17 18 20 21 13 10 3 6 11 16 19 17 13 12 11
35 44 48 50 49 46 44 42 39 37 34 32 29 28 30 31 30 29 27 25 23 21 20 20 20 19 17 16 15 16 17 20 15 12 7 2 8 11 20 19 13 12 11
25 31 42 48 50 48 45 44 42 40 37 35 32 28 27 28 28 28 27 26 24 23 22 21 20 19 17 15 14 14 14 15 21 16 14 5 1 5 18 20 14 12 12
23 20 27 39 47 50 48 46 44 43 42 40 38 35 32 30 29 28 29 28 26 24 24 23 22 21 19 17 15 14 14 15 18 21 17 9 6 6 16 22 17 13 13
34 24 25 23 39 47 49 49 48 46 46 47 47 45 42 38 36 35 32 30 29 30 29 27 26 24 22 21 19 16 15 18 19 21 18 10 7 6 16 21 17 13 13
46 40 31 27 29 45 50 51 51 51 51 52 54 54 52 47 43 40 38 37 36 34 33 33 32 30 29 26 25 24 19 20 22 26 20 17 12 6 15 22 19 15 13
46 46 36 31 34 38 47 51 55 56 55 55 56 59 57 55 53 51 48 47 46 45 44 42 39 38 35 33 34 33 29 27 28 28 24 21 19 15 19 25 23 21 18
46 44 46 46 49 41 42 44 47 53 55 56 57 60 62 63 63 62 60 56 54 53 51 50 49 45 43 42 42 41 42 39 36 37 35 33 28 23 22 24 29 27 24
17 27 46 53 56 51 48 44 46 50 50 50 52 54 59 64 66 64 64 63 61 60 61 60 57 54 54 52 51 50 48 47 45 43 40 36 36 31 25 26 26 30 30
6 12 31 49 62 61 55 47 41 40 38 37 38 39 58 63 67 70 71 71 71 67 66 67 68 65 63 60 56 57 53 47 51 49 45 41 38 35 34 31 29 30 34
27 18 13 37 60 59 51 46 45 43 37 36 41 42 41 47 63 69 71 77 79 73 72 70 70 71 70 68 62 57 53 52 51 50 46 49 49 46 46 37 34 34 37
18 14 19 20 39 52 51 50 47 45 49 53 50 48 49 49 49 54 61 73 79 77 75 71 69 69 71 73 69 66 62 52 46 50 57 60 56 49 50 44 42 38 41
19 13 16 23 22 29 43 51 47 43 44 41 41 48 55 56 60 62 62 64 65 75 82 78 76 73 71 69 71 74 68 61 58 54 53 57 59 54 47 43 44 41 45
32 28 20 19 21 25 30 34 42 49 57 52 53 56 59 67 67 69 73 73 73 73 80 89 84 80 81 76 76 75 76 66 64 64 61 56 57 55 49 40 48 46 48
37 39 31 24 16 15 17 23 29 35 31 38 51 51 56 64 67 78 84 83 83 82 85 88 93 90 88 83 80 81 82 78 72 75 70 69 69 66 57 60 52 51 54
44 44 45 45 34 28 27 32 41 48 54 50 44 46 51 58 66 75 83 89 95 94 93 92 95 100 101 94 90 87 72 88 87 81 82 80 77 72 67 64 60 58 58
49 43 38 30 28 23 21 23 27 36 45 54 60 60 57 52 52 64 76 87 95 99 101 96 103 101 108 109 102 85 44 63 67 80 93 89 86 85 83 72 62 61 63
39 28 21 16 15 18 23 25 27 32 40 45 50 60 64 64 63 58 58 71 89 91 100 106 104 109 109 103 92 110 104 81 52 60 74 99 93 93 89 81 70 67 66
34 26 18 13 11 13 24 34 39 36 39 47 56 64 64 64 73 75 76 76 75 82 99 102 109 111 112 113 108 104 107 115 101 75 49 62 91 105 92 84 80 74 68
27 20 17 17 19 24 32 38 50 54 58 59 57 55 57 64 68 68 70 70 71 74 83 95 106 111 113 117 118 117 105 88 92 99 89 85 82 101 94 81 82 81 71
Wind_Direction_850mb
166 157 155 156 155 148 147 146 147 150 151 151 152 152 157 158 154 148 146 142 141 138 135 134 134 133 132 122 112 112 108 105 103 92 79 72 57 43 41 45 61 67 71
165 161 157 158 157 150 149 147 147 149 151 154 155 153 151 149 147 145 144 143 142 138 132 131 130 131 129 126 126 120 118 120 110 96 80 71 50 39 35 35 41 58 68
165 163 160 161 160 155 153 151 150 150 151 151 149 145 144 144 144 144 145 145 143 140 138 137 137 138 136 134 132 124 122 114 106 98 83 62 41 33 30 32 33 35 56
166 165 164 163 163 159 157 154 153 152 150 148 147 146 145 146 146 147 148 147 145 144 143 142 144 146 144 141 139 139 136 117 96 83 67 55 11 13 16 20 18 33 45
166 168 168 166 166 164 160 159 157 156 153 149 151 151 150 150 152 152 152 151 149 148 146 148 152 153 153 149 147 151 148 132 122 107 72 63 22 13 9 8 13 18 24
167 171 171 170 169 169 167 165 164 164 161 158 157 158 160 160 161 160 159 158 157 156 156 160 164 164 164 161 158 158 162 158 146 164 160 82 39 9 358 353 353 7 10
171 174 175 174 175 174 173 172 171 171 171 167 166 167 170 171 172 172 170 171 170 170 169 173 176 177 177 174 169 168 171 175 177 207 226 54 44 353 340 344 342 348 345
172 176 178 179 181 182 181 180 180 180 181 181 178 179 181 183 183 183 182 182 183 183 183 186 189 190 190 187 183 180 183 195 198 209 244 24 62 13 340 334 325 334 328
147 173 183 186 187 189 190 189 188 190 191 191 193 191 193 195 195 193 193 194 195 196 196 198 202 205 204 203 199 193 193 197 197 212 242 241 240 345 326 328 314 318 318
165 168 182 194 195 195 196 197 198 197 198 199 200 203 202 203 207 211 206 204 205 208 211 211 211 214 218 218 215 209 205 210 214 211 218 223 267 306 316 316 304 304 306
178 193 185 190 204 203 203 203 204 206 207 206 206 206 210 212 211 210 218 220 218 216 218 220 221 223 225 226 224 218 212 211 211 210 216 227 253 296 308 304 291 287 287
195 197 207 202 202 205 208 208 210 210 211 212 213 212 213 216 219 221 219 219 222 227 229 226 225 225 226 226 225 219 215 210 209 211 221 231 231 254 291 302 289 285 279
216 205 207 224 210 205 213 213 212 214 216 217 218 219 219 220 223 225 225 222 222 221 225 227 228 230 228 226 225 224 219 209 201 206 210 222 240 253 270 289 279 280 273
225 232 230 239 220 209 210 215 221 222 221 223 223 223 224 225 226 229 230 230 229 228 228 228 229 231 230 228 227 229 224 222 213 206 212 220 226 243 254 277 279 274 272
190 220 237 246 233 217 215 214 218 222 226 231 234 238 239 236 236 237 238 238 237 235 234 233 233 232 233 231 232 233 228 229 225 217 222 221 225 223 242 262 271 269 266
231 222 214 227 231 215 218 218 221 219 226 228 236 249 245 246 246 245 248 247 245 241 241 241 240 239 238 238 236 235 234 238 230 226 233 237 238 237 241 250 257 265 261
271 288 174 208 225 217 224 230 230 232 234 245 254 251 256 254 254 252 252 253 251 248 247 247 249 249 248 244 242 239 240 242 238 235 241 246 244 248 249 245 255 260 256
236 166 145 181 215 230 230 234 238 249 247 247 248 256 258 259 259 260 257 255 256 256 255 256 256 257 254 250 247 244 242 238 239 238 239 244 249 250 253 250 248 253 253
224 224 180 176 186 211 228 234 237 246 257 266 270 267 263 258 259 260 260 261 262 257 254 252 251 249 251 249 248 246 245 245 242 240 237 241 241 243 245 251 250 250 255
211 199 198 179 178 190 210 231 239 248 251 256 261 263 273 272 270 260 258 259 262 260 256 252 250 249 249 250 247 248 245 245 244 243 238 238 235 239 242 242 249 252 255
201 210 208 208 197 199 219 242 258 272 273 264 265 268 268 272 270 271 269 265 259 256 260 257 251 251 251 250 252 250 252 249 249 244 242 239 240 242 240 248 243 247 255
192 197 211 221 226 241 256 265 275 280 281 278 273 275 277 276 269 267 269 272 271 266 258 257 254 248 250 251 249 248 246 250 249 246 240 240 243 245 246 250 250 255 258
188 192 200 209 227 256 273 278 283 283 282 283 281 278 274 277 284 274 269 271 271 272 270 263 256 252 248 249 245 238 240 245 253 256 246 241 241 244 246 245 246 250 252
181 183 195 214 237 253 275 283 287 293 299 301 297 292 285 279 278 280 286 278 272 271 271 271 266 257 254 249 245 244 241 246 252 253 254 245 242 240 241 244 246 248 247
174 177 197 216 218 259 283 292 299 301 297 296 297 300 297 290 285 286 281 277 283 281 272 272 270 265 262 258 246 243 243 243 242 247 261 262 252 242 240 244 244 249 243
177 203 222 222 244 268 283 292 297 293 295 299 298 297 301 302 301 297 297 294 287 283 281 278 273 271 267 264 263 251 237 239 239 236 242 246 268 254 240 237 236 240 240